Location: Dampvalley
(47.9094°N, 6.1967°E)
Time: 03:34:12
(UTC+00:00)

XW-2F - Visible Passes

Search period start: 06 December 2021 00:00
Search period end: 16 December 2021 00:00
Orbit: 497 x 514 km, 97.5° (Epoch: 05 December)

Date Brightness Start Highest point End Pass type
(mag) Time Alt. Az. Time Alt. Az. Time Alt. Az.
06 Dec ? 04:57:38 10° NE 05:00:18 18° E 05:02:58 10° SE visible
06 Dec ? 06:30:48 10° N 06:34:20 38° WNW 06:37:50 10° SW visible
06 Dec ? 17:12:33 10° S 17:16:11 51° W 17:19:52 10° NNW visible
07 Dec ? 04:40:53 10° ENE 04:42:20 12° E 04:43:47 10° ESE visible
07 Dec ? 06:12:51 10° N 06:16:37 61° WNW 06:20:18 10° SSW visible
07 Dec ? 16:54:38 10° SSE 16:58:22 85° WSW 17:02:09 10° NNW visible
08 Dec ? 05:55:02 10° NNE 05:58:49 82° ESE 06:02:35 10° SSW visible
08 Dec ? 16:36:56 10° SSE 16:40:35 59° ENE 16:44:18 10° N visible
08 Dec ? 18:13:19 10° WSW 18:14:50 12° W 18:16:23 10° WNW visible
09 Dec ? 05:37:18 10° NNE 05:40:59 50° E 05:44:38 10° S visible
09 Dec ? 16:19:24 10° SE 16:22:50 37° ENE 16:26:20 10° N visible
09 Dec ? 17:54:10 10° SW 17:56:51 19° W 17:59:34 10° NW visible
10 Dec ? 05:19:42 10° NNE 05:23:06 31° E 05:26:29 10° SSE visible
10 Dec ? 17:35:38 10° SSW 17:38:55 28° W 17:42:13 10° NW visible
11 Dec ? 05:02:18 10° NE 05:05:10 20° E 05:08:00 10° SE visible
11 Dec ? 06:35:41 10° N 06:39:08 34° WNW 06:42:32 10° SW visible
11 Dec ? 17:17:24 10° S 17:21:00 45° W 17:24:39 10° NNW visible
12 Dec ? 04:45:18 10° ENE 04:47:10 13° E 04:49:02 10° ESE visible
12 Dec ? 06:17:40 10° N 06:21:22 54° WNW 06:25:01 10° SSW visible
12 Dec ? 16:59:24 10° S 17:03:08 75° WSW 17:06:55 10° NNW visible
13 Dec ? 05:59:47 10° NNE 06:03:34 88° W 06:07:18 10° SSW visible
13 Dec ? 16:41:36 10° SSE 16:45:18 68° ENE 16:49:04 10° N visible
13 Dec ? 18:18:40 10° WSW 18:19:37 11° W 18:20:34 10° WNW visible
14 Dec ? 05:41:59 10° NNE 05:45:43 57° E 05:49:23 10° S visible
14 Dec ? 16:23:59 10° SE 16:27:31 42° ENE 16:31:06 10° N visible
14 Dec ? 17:59:06 10° SW 18:01:35 17° W 18:04:05 10° NW visible
15 Dec ? 05:24:19 10° NNE 05:27:49 35° E 05:31:15 10° SSE visible
15 Dec ? 17:40:26 10° SSW 17:43:36 26° W 17:46:48 10° NW visible
